DECAYED

DELTA 1 DEB, 10261 (Decayed)

Orbit data source: Space-Track

DELTA 1 DEB, 10261 was space debris in LEO originally from a launch on Thu, 14 Jul 1977 UTC launched from the Air Force Eastern Test Range (AFETR). Debris objects in space refer to the collection of defunct objects orbiting the Earth. Examples of debris include non-operational satellites, rocket bodies, and fragments generated from explosions, collisions, or faulty payload assembly.

Not visible in the next 10 days
Identifier
10261, 1977-065CN
Orbit
Decayed
Country
Flag of USUS
Related business
Manufacturer
Unknown
Mission
Decayed spacecraft
Bus & Motor
Unknown
Mass
Unknown
Launch date (UTC)
1977-07-14 (49 years ago)
Launch vehicle
Unknown
Launch site
Air Force Eastern Test Range (AFETR)
Object type
Payload
Rocket body
Debris
Shape & HBR
Unknown shape, 0.1 m
Radar Cross Section
Medium (>0.1 m² and <1 m²)

Expand to show TLE details & history
Last TLE update: 6 months ago

TLE from 6 months ago
0 DELTA 1 DEB
1 10261U 77065CN  26074.59746229  .05403707  14909-0  47781-2 0  9996
2 10261  28.9719 181.2537 0001760 278.2644  81.7785 16.19477191478227
Epoch: 2026-03-15T14:20Z
TLE epoch observation values (Epoch: 2026-03-15T14:20:20.741Z)
Latitude
-0.00003°
Longitude
152.96522°
Altitude
219.041 km
Speed
7.778 km/s
True Right ascension
12h 05m 00s
True Declination
0° 00' 00"
Sunlit
Object was in full shadow at epoch
Visualization orbit readout
Latitude
Unknown
Longitude
Unknown
Altitude
Unknown
Speed
Unknown
Apparent Right ascension
Unknown
Apparent Declination
Unknown
Sunlit
N/A
Visualization observer readout
Local Sidereal Time
05:56:19
Azimuth
Unknown
Elevation
Unknown
Doppler factor
Unknown
Orbital elements
Apogee altitude
226.465 km
Perigee altitude
224.141 km
Semi-major axis
6,603.44 km
Eccentricity
0.00018
Inclination
28.9719°
RAAN
181.2537°
Arg. of periapsis
278.2644°
True anomaly
81.79846°
Mean anomaly
81.7785°
Eccentric anomaly
81.78848°
Mean motion
4.04471 °/min
Orbital period
89.01 mins
BSTAR
0.0047781
Loading maneuver chart data...
Computing Atmospheric mass density...

Documentation

Showing up to 5 results
|